Regional Weather Roundup
Issued by NWS

Home | Current Version | Previous Version | Text Only | Print | Product List | Glossary Off
Versions: 1 2 3 4 5 6 7 8 9 10 11 12 13 14 15 16 17 18 19 20 21 22 23 24 25 26 27 28 29 30 31 32 33 34 35 36 37 38 39 40 41 42 43 44 45 46 47 48 49 50

000
ASUS43 KLMK 060102
RWRKY
KENTUCKY REGIONAL WEATHER ROUNDUP
NATIONAL WEATHER SERVICE LOUISVILLE KY
800 PM EST THU MAR 05 2015

NOTE "FAIR" INDICATES FEW OR NO CLOUDS BELOW 12,000 FEET
WITH NO SIGNIFICANT WEATHER AND/OR OBSTRUCTIONS TO VISIBILITY.

KYZ001>023-026-027-061>063-070>075-060200-
WESTERN AND SOUTH CENTRAL KENTUCKY

CITY           SKY/WX    TMP DP  RH WIND       PRES   REMARKS
PADUCAH        PTCLDY    17   5  59 N9        30.57S WCI   6
HENDERSON      PTCLDY    18   1  49 N6        30.60R WCI   9
OWENSBORO      PTCLDY    13   3  64 NW7       30.59R WCI   3
HOPKINSVILLE   PTCLDY    19   4  52 N7        30.55R WCI   9
BOWLING GREEN  CLEAR     20   7  57 NW6       30.54R WCI  12
GLASGOW        NOT AVBL
$$

KYZ024-025-028>034-038-045-046-053-060200-
NORTH CENTRAL KENTUCKY

CITY           SKY/WX    TMP DP  RH WIND       PRES   REMARKS
LOUISVILLE/SDF CLOUDY    25  12  58 N8        30.52R WCI  16
LOUISVILLE/LOU CLOUDY    24  11  57 NE5       30.52R WCI  18
FORT KNOX      PTCLDY    19   9  63 W7        30.50R WCI  10
$$

KYZ035>037-039>044-047>052-055>060-089>105-060200-
NORTHEAST KENTUCKY

CITY           SKY/WX    TMP DP  RH WIND       PRES   REMARKS
LEXINGTON      FLURRIES  17  11  77 CALM      30.49R
COVINGTON      CLEAR     18   4  54 N8        30.50R WCI   8
FRANKFORT      CLEAR     18  10  71 N5        30.49R WCI  11
$$

KYZ054-064>069-076>088-106>120-060200-
SOUTHEAST KENTUCKY

CITY           SKY/WX    TMP DP  RH WIND       PRES   REMARKS
JACKSON        CLEAR     16   9  74 N3        30.45R
LONDON         PTCLDY    17   9  70 CALM      30.46R
SOMERSET       NOT AVBL
MIDDLESBORO    CLOUDY    22  16  78 N7        30.45R WCI  13
MONTICELLO     PTCLDY     8   5  87 CALM      30.52R
$$




USA.gov is the U.S. government's official web portal to all federal, state and local government web resources and services.